カタログに戻る

FENGYUN 1C DEB

LostPO
NORAD 38110·DEBRIS·🇨🇳 China

打ち上げ May 10, 1999 から Taiyuan Satellite Launch Center

Loading…

次のパス (今後24時間)

TLE

古いSource: Space-Track

元期: Aug 26, 2024, 19:01 UTC

1 38110U 99025EPF 24239.79254808  .00002904  00000-0  18479-2 0  9997
2 38110  98.1142 230.6930 0194782 197.7627 288.5840 13.95483087723042

AllMySatでFENGYUN 1C DEBをリアルタイム追跡

Download on the App Store